Regional Weather Roundup
Issued by NWS Charleston, SC

Current Version | Previous Version | Graphics & Text | Print | Product List | Glossary On
Versions: 1 2 3 4 5 6 7 8 9 10 11 12 13 14 15 16 17 18 19 20 21 22 23 24 25 26 27 28 29 30 31 32 33 34 35 36 37 38 39 40 41 42 43 44 45 46 47 48 49 50
000
ASUS42 KCHS 010413
RWRCHS

REGIONAL WEATHER ROUNDUP
NATIONAL WEATHER SERVICE CHARLESTON SC
1200 AM EDT SAT OCT 01 2016

NOTE: "FAIR" INDICATES FEW OR NO CLOUDS BELOW 12,000 FEET WITH NO
SIGNIFICANT WEATHER AND/OR OBSTRUCTIONS TO VISIBILITY.

NOT ALL STATIONS ARE QUALITY CONTROLLED. USE DATA WITH CAUTION...
ESPECIALLY DEWPOINT OBSERVATIONS.

SCZ027-030-031-034>040-042>050-010500-
...SOUTHEAST SOUTH CAROLINA...

CITY           SKY/WX    TMP DP  RH WIND       PRES   REMARKS
N CHARLESTON   CLEAR     69  64  84 CALM      30.03S
WATERFRONT PRK   N/A     76  66  71 CALM      30.02R
MOUNT PLEASANT FAIR      68  66  94 CALM      30.04S
JOHNS ISLAND   FAIR      68  66  94 CALM      30.04R
PINOPOLIS        N/A     73  64  73 VRB3      29.95S
MONCKS CORNER  FAIR      63  61  94 CALM      30.04R
SUMMERVILLE    NOT AVBL
BEAUFORT MCAS    N/A     68  62  81 CALM      30.04R
BEAUFORT ARPT  FAIR      70  64  83 CALM      30.04R
HILTON HEAD IS CLEAR     68  66  94 CALM      30.04S
WALTERBORO     CLEAR     64  64 100 CALM      30.05R
ALLENDALE      FAIR      61  59  94 CALM      30.04R

...SOUTHERN MIDLANDS AND PEE DEE...

CITY           SKY/WX    TMP DP  RH WIND       PRES   REMARKS
GEORGETOWN     FAIR      64  63  94 SW3       30.05S
KINGSTREE        N/A     61  59  94 CALM      30.04S
ORANGEBURG     CLEAR     61  58  90 CALM      30.04R
BARNWELL       NOT AVBL
AIKEN          FAIR      57  52  82 W3        30.08R
MANNING        FAIR      61  59  94 CALM      30.04R
COLUMBIA       CLEAR     62  54  74 SW3       30.03R
SUMTER         CLEAR     62  54  75 CALM      30.01R
FLORENCE       CLEAR     65  62  90 CALM      30.03R
MYRTLE BEACH   PTCLDY    73  61  64 SW7       30.05S
N MYRTLE BEACH PTCLDY    75  69  81 W3        30.02S

$$

GAZ063-065-086>088-099>101-113>116-118-119-134>141-150-010500-
...SOUTHEAST GEORGIA...

CITY           SKY/WX    TMP DP  RH WIND       PRES   REMARKS
SAVANNAH ARPT  CLEAR     65  60  84 CALM      30.05R
HUNTER AAF     CLEAR     64  63  96 W5        30.02R
FORT STEWART   CLEAR     62  58  86 CALM      30.03R
STATESBORO     CLEAR     60  60  99 CALM      30.05R
SYLVANIA       NOT AVBL
CLAXTON        FAIR      58  58 100 CALM      30.05S

...CSRA...CENTRAL AND FAR SOUTHEAST GEORGIA...

CITY           SKY/WX    TMP DP  RH WIND       PRES   REMARKS
THOMSON        CLEAR     57  53  87 CALM      30.10R
AUGUSTA-BUSH   CLEAR     57  54  89 CALM      30.04R
AUGUSTA-DANIEL CLEAR     69  46  43 NW8       30.05R
SWAINSBORO     FAIR      59  54  82 CALM      30.06S
VIDALIA        CLEAR     63  61  94 CALM      30.06R
EASTMAN        FAIR      57  56  96 CALM      30.09R
HAZLEHURST     FAIR      61  58  88 CALM      30.05S
ALMA           CLEAR     58  56  93 CALM      30.04S
WAYCROSS       CLEAR     64  61  89 CALM      30.05R
JESUP          FAIR      61  59  94 CALM      30.05S
BAXLEY         FAIR      61  57  88 CALM      30.04S
BRUNSWICK      CLEAR     66  63  88 CALM      30.04F
SAINT SIMONS   CLEAR     74  58  57 N5        30.02F

$$

SCZ027-028-034-036>038-045-046-048>050-GAZ119-141-010500-
...LAKE AND SUPPLEMENTAL COASTAL OBSERVATIONS...

STATION/POSITION TIME  TEMP    WIND        PRES    WAVE   SWELL
                       AIR SEA DIR/SP/G            HT/PER HT/PER/DIR
                 (UTC) (F)     (DEG/KT/KT) (MB)    (FT/S) (FT/S/D)
WINYAH BAY       0245   74     250/  2     1016.0
LAKE MURRAY      0320   70      CALM  /  4 1016.3
ACE BASIN NERRS  0245   68        CALM     1017.0
FORT PULASKI     0348   74 82  300/  4/  4 1017.5R
SAPELO ISLAND    0300   76     340/  4     1017.0

$$

ANZ835-935-AMZ111-154-330-350-352-354-370-450-454-472-010500-
...C-MAN AND BUOY OBSERVATIONS...

STATION/POSITION TIME  TEMP    WIND        PRES    WAVE   SWELL
                       AIR SEA DIR/SP/G            HT/PER HT/PER/DIR
                 (UTC) (F)     (DEG/KT/KT) (MB)    (FT/S) (FT/S/D)
BUOY 41004       0350   80 82  220/ 10/ 12 1016.4R   3/ 5   2/160/ 5
BUOY 41008       0350   82 82  170/  6/  8 1016.4F   2/ 9   2/120/ 9
FOLLY BEACH CMAN 0400   75     320/  3/  3 1017.3R
CAPERS NEARSHORE 0308   79 81  300/  8/ 10 1016.8R
FRIPP NEARSHORE  0308   78 81  330/  8/ 10 1016.8R


STATION/POSITION TIME  TEMP    WIND        PRES    WAVE   SWELL
                       AIR SEA DIR/SP/G            HT/PER HT/PER/DIR
                 (UTC) (F)     (DEG/KT/KT) (MB)    (FT/S) (FT/S/D)
5E ST. MARYS GA  0301      83                N/A     2/10
FRYING PAN BUOY  0350   81 82  180/  8/ 10 1016.6R   4/ 6   3/170/ 6
BUOY 41025       0350   80 84  150/ 16/ 19 1017.7R   5/11   3/ 60/11
CAPE LOOKOUT NC  0400   79     150/ 13/ 15 1017.2S
BUOY 41002       0350   82 83  170/ 12/ 14 1018.8S   5/11   5/350/11
BUOY 41010       NOT AVBL
ST AUGUSTINE FL  0400   76 83  230/  8/ 10 1016.8F


$$



USA.gov is the U.S. government's official web portal to all federal, state and local government web resources and services.